Vorticity
11 9 8 6 5 5 5 4 3 2 2 2 2 2 2 2 1 0 -1 -1 -0 0 1 2 4 6 6 5 1 -1 -2 -1 0 1 1 3 5 8 11 14 15 16 16 14 11 9 7 7 8 9 10 10 10 10 9 9 9 8 9 9 10 10 9 9 10 9 8 4 1
11 10 9 7 6 6 6 5 3 2 1 1 2 2 3 2 1 -0 -1 -2 -2 -1 1 3 5 7 7 6 2 -0 -1 -1 0 1 2 4 6 9 12 15 16 16 15 13 10 8 7 6 8 9 10 11 11 11 11 11 10 9 9 10 10 9 9 10 10 8 6 1 -0
10 10 9 8 8 7 6 5 3 1 0 1 2 2 3 2 1 -0 -1 -2 -2 -2 0 4 7 8 8 6 2 0 -1 -1 -0 1 3 6 8 11 14 16 17 16 15 12 10 8 6 6 8 9 11 12 12 12 12 12 11 10 10 10 9 9 9 10 9 6 4 4 9
10 10 9 9 9 8 7 5 2 0 -0 1 2 2 2 1 0 -0 -1 -2 -2 -2 0 4 8 10 9 6 3 1 -0 -1 -0 2 4 6 10 13 15 17 17 16 13 11 9 7 6 7 8 10 11 12 12 12 12 11 10 10 10 9 8 8 8 9 7 6 4 3 4
9 9 9 9 9 8 7 4 2 0 -0 1 2 2 1 0 -0 -0 -0 -1 -2 -2 1 5 9 10 10 7 3 1 -1 -1 0 2 4 7 11 14 16 17 16 15 13 10 8 7 7 7 9 10 12 12 12 11 10 9 9 9 9 8 8 7 7 8 7 6 4 2 1
8 8 8 8 8 7 6 4 2 1 0 1 1 1 0 -0 -0 -1 -1 -1 -2 -1 2 6 10 11 10 7 3 1 -1 -1 0 2 5 8 12 15 16 17 16 13 11 9 7 7 7 8 10 11 11 11 11 10 9 8 8 7 6 6 7 7 7 8 7 5 1 -2 -2
7 7 6 6 6 6 5 4 2 1 1 1 1 0 -0 -1 -1 -1 -1 -0 -1 0 3 8 11 11 9 6 2 0 -1 -1 0 3 6 9 12 15 17 16 14 12 10 8 7 7 8 9 10 11 11 10 10 9 8 8 7 6 6 6 6 7 8 8 7 6 7 7 9
5 5 5 5 5 4 4 3 2 2 1 0 -0 -1 -2 -2 -2 -1 -0 -0 -1 1 4 10 12 11 8 4 1 -0 -1 -1 1 3 6 10 13 15 16 15 13 11 9 8 7 8 9 10 10 10 9 9 9 8 8 7 6 7 7 6 6 8 10 9 9 11 13 13 13
5 5 5 4 4 4 3 3 2 2 1 -0 -2 -2 -3 -3 -3 -2 -1 -1 -2 1 5 11 13 12 8 4 1 -0 -1 0 2 4 7 10 13 14 15 14 12 10 8 7 8 8 9 10 10 9 8 8 8 8 7 6 6 7 8 8 7 9 10 11 11 11 10 10 10
6 6 5 4 4 4 3 3 2 1 0 -0 -1 -2 -3 -3 -4 -3 -2 -2 -2 1 6 12 14 12 8 4 1 -0 -0 1 2 5 8 11 13 14 14 12 10 9 8 8 8 8 9 9 8 8 8 8 8 7 6 5 6 8 10 10 10 10 10 10 10 9 9 10 13
4 4 4 4 3 3 3 2 2 1 0 -0 -1 -2 -3 -4 -5 -4 -3 -1 -1 2 7 13 14 12 8 4 1 0 0 1 4 6 8 11 13 13 13 11 9 8 8 8 8 8 8 8 8 7 7 8 8 7 6 6 9 11 11 10 10 10 10 10 10 12 13 15 17
2 2 2 2 2 2 2 2 2 1 0 0 -1 -2 -3 -5 -6 -4 -2 -1 -0 3 8 14 15 12 8 4 1 0 0 2 4 7 9 11 13 12 11 9 8 8 8 8 8 8 8 8 8 8 8 8 8 8 9 10 12 12 10 8 9 11 13 12 14 16 17 18 17
2 1 1 1 1 1 1 1 1 1 0 0 -1 -2 -4 -6 -6 -4 -1 0 1 4 9 15 15 12 8 4 2 1 1 3 5 8 10 12 12 11 10 8 8 8 8 8 8 8 8 8 8 8 8 7 7 8 10 11 12 10 8 7 9 12 14 15 17 18 18 17 15
1 1 1 1 1 1 1 1 0 0 0 -0 -2 -3 -4 -6 -5 -2 -0 1 2 5 10 15 15 12 8 4 2 1 2 3 6 8 10 12 11 10 9 8 8 8 8 8 8 8 8 8 8 8 8 7 7 8 10 12 11 10 8 8 10 13 15 18 18 16 14 12 10
1 1 1 1 1 1 1 1 0 0 -0 -1 -2 -3 -4 -5 -3 -1 1 2 3 6 10 15 15 12 8 4 2 1 2 4 7 10 11 12 10 9 8 8 8 8 8 8 8 9 9 8 8 9 9 8 8 9 10 11 11 10 10 10 12 15 18 20 17 13 9 8 7
-0 0 1 1 1 1 1 0 0 0 -0 -1 -2 -3 -3 -3 -1 1 2 2 3 7 11 16 14 11 7 4 2 2 3 6 9 10 11 10 9 8 7 8 8 8 8 8 8 9 10 10 9 9 9 9 10 10 11 11 11 11 11 11 16 20 22 18 13 9 7 7 6
-1 -1 -0 0 1 1 0 0 0 -0 -1 -2 -2 -2 -2 -0 1 2 2 3 4 8 12 16 14 10 6 4 3 3 5 8 10 11 11 9 7 7 7 8 8 8 9 9 9 9 10 10 10 10 10 10 11 11 11 11 10 10 12 16 21 22 18 12 8 7 7 6 5
-1 -1 -1 -1 -1 -1 -1 -1 -0 -1 -1 -2 -2 -1 0 2 2 3 4 5 7 10 13 15 13 10 6 3 3 4 7 9 11 11 10 7 7 7 7 8 8 9 9 10 10 10 10 10 10 10 10 11 11 12 12 11 11 13 17 22 22 18 12 8 7 6 6 5 3
3 1 0 -0 -0 -1 -1 -0 -0 -0 -0 -0 0 2 3 4 4 5 6 8 10 12 13 14 12 9 6 4 4 6 8 11 11 10 8 6 6 7 8 8 9 10 10 10 10 10 10 10 10 10 10 11 12 12 13 12 14 18 22 22 17 11 8 6 6 6 5 3 2
9 7 5 4 3 2 2 2 2 2 2 3 4 5 6 6 6 8 10 12 13 13 13 13 10 8 6 4 5 7 10 12 11 9 7 6 6 7 8 9 10 10 10 10 10 10 10 10 10 10 11 12 13 14 14 15 20 23 22 17 11 8 6 6 5 4 3 2 2
16 14 12 10 9 8 7 6 6 6 6 6 8 8 9 9 10 12 13 15 14 14 13 12 10 7 6 5 7 9 10 12 11 9 7 6 7 8 9 10 10 10 10 10 10 10 10 10 10 10 12 14 15 16 17 20 22 21 16 10 8 6 6 5 3 2 2 3 3
20 19 18 16 14 13 12 11 10 9 9 9 10 10 11 11 12 14 16 16 14 14 13 11 9 7 6 6 8 10 11 12 10 8 7 6 7 9 10 11 11 10 10 10 9 9 8 8 9 11 13 16 18 19 20 21 18 14 10 7 5 4 4 3 3 3 3 3 3
20 20 20 19 17 16 14 13 12 11 11 10 11 11 12 13 15 16 16 15 14 13 12 10 8 7 6 7 9 10 12 12 10 8 7 7 8 10 11 12 11 10 10 10 9 8 8 8 10 13 17 20 21 21 19 16 11 7 4 3 3 3 3 4 4 3 3 3 3
19 19 19 19 17 16 15 14 13 12 11 11 11 12 13 15 17 17 16 13 12 11 10 9 7 6 6 8 10 12 13 12 9 8 7 8 10 11 12 11 10 9 9 9 8 7 6 6 10 16 22 24 22 20 16 11 6 3 2 2 2 3 3 3 3 3 3 3 3
18 18 17 18 17 15 14 13 13 12 11 11 12 13 14 17 17 16 13 10 10 10 9 8 7 6 8 10 12 14 14 12 9 8 8 10 12 12 11 10 8 8 8 8 6 5 5 7 15 22 26 24 20 16 12 7 4 2 3 4 3 3 3 3 3 3 3 3 4
17 16 16 16 15 14 12 12 11 11 11 11 12 14 16 17 16 13 9 7 8 9 9 7 7 8 10 12 13 14 14 11 9 9 10 12 13 12 10 8 7 7 7 6 5 4 5 11 22 26 25 19 15 10 7 4 4 4 4 5 4 3 2 2 3 3 3 4 4
16 16 16 16 14 13 11 10 10 10 11 12 14 16 16 16 12 9 6 6 8 8 8 8 8 9 11 13 15 14 13 11 10 11 13 14 13 10 8 7 7 7 7 6 3 4 8 18 25 24 19 13 10 7 4 3 4 5 5 4 3 3 2 3 3 3 4 4 5
17 17 16 16 14 13 12 11 11 12 13 14 15 16 15 12 8 6 4 6 8 9 9 9 9 10 12 15 16 14 12 11 12 13 14 14 11 9 7 7 7 7 7 5 2 5 14 26 26 21 14 9 7 5 4 4 5 5 5 3 2 2 3 3 3 4 4 5 6
17 18 18 17 16 16 16 14 14 15 16 16 16 15 12 8 5 4 4 6 8 9 10 10 10 12 14 17 16 15 13 13 14 15 14 11 8 7 6 6 7 7 6 2 1 9 22 32 24 16 9 6 4 4 5 6 6 5 3 2 2 3 3 3 4 4 5 6 7
13 16 18 18 19 19 19 19 18 18 18 17 15 13 9 6 4 4 5 7 9 10 11 10 12 14 17 18 17 16 15 15 15 13 10 7 6 6 6 6 7 7 4 -3 3 17 30 31 19 10 6 4 3 4 5 6 5 4 3 2 3 3 3 4 4 5 6 7 8
9 11 14 17 19 20 21 21 20 19 17 16 13 10 7 5 4 5 7 9 10 11 11 12 14 17 19 19 17 16 15 15 13 10 6 4 4 4 5 6 7 4 -1 -6 11 26 32 23 12 6 4 3 3 4 5 5 4 3 3 3 3 3 4 4 5 6 7 8 9
7 6 7 9 12 15 17 18 18 17 15 13 10 8 7 6 6 7 8 10 10 11 12 14 18 20 21 20 17 16 14 13 10 6 4 2 2 3 5 7 7 1 -3 0 23 31 27 13 7 4 3 3 4 4 4 4 3 3 3 3 4 4 4 5 6 7 8 10 10
7 5 4 3 4 5 8 11 13 14 14 13 11 10 9 8 8 8 9 10 11 12 15 19 22 23 21 18 15 14 12 10 5 3 1 0 1 3 6 10 4 -2 -1 15 31 29 18 6 4 3 3 3 4 4 4 3 3 3 3 4 4 4 5 6 7 9 10 11 11
7 6 4 2 1 0 1 3 7 11 14 16 14 13 11 10 9 9 10 11 12 15 19 24 24 21 17 13 12 10 9 6 2 -1 -2 -2 2 7 10 7 -2 -2 8 30 32 22 10 4 3 3 3 4 4 4 3 3 3 3 4 4 4 5 6 8 9 10 11 12 12
7 6 5 4 2 1 -0 -0 3 7 12 16 16 16 14 11 10 10 11 13 15 20 24 26 22 17 13 10 9 7 4 1 -2 -4 -2 2 9 12 9 -1 -6 3 20 36 26 14 5 3 3 3 3 4 4 3 3 3 3 3 4 4 5 6 8 9 10 11 12 12 12
6 6 5 4 5 4 3 1 0 2 5 10 13 14 14 13 12 12 13 15 20 25 27 24 18 13 9 8 7 4 -0 -4 -5 -2 4 12 15 11 2 -7 -1 15 29 32 17 8 3 2 3 3 3 3 3 3 3 3 3 4 4 5 6 8 9 10 11 12 12 12 12
6 5 4 5 7 8 9 8 3 0 -1 2 6 9 11 12 13 15 18 21 27 28 26 18 12 8 6 6 3 -0 -4 -5 -1 6 13 18 12 2 -5 -6 11 26 32 22 10 4 2 2 3 3 3 3 3 3 3 3 4 4 5 6 7 9 10 11 11 12 12 12 11
5 5 5 6 8 10 13 15 11 6 2 0 2 4 7 11 16 20 24 29 30 26 19 11 7 6 5 4 0 -3 -4 -1 7 14 16 11 1 -5 -4 6 25 31 27 13 6 3 2 2 3 3 3 3 3 3 3 3 4 5 6 7 8 10 11 12 12 12 12 11 10
7 8 9 11 12 13 14 17 17 14 10 6 5 5 7 13 20 26 29 31 26 18 11 6 5 5 4 1 -3 -3 1 8 15 15 10 0 -5 -4 5 22 32 28 18 7 4 2 2 2 3 3 3 3 3 3 3 4 4 6 7 8 9 10 12 12 12 12 11 10 8
12 14 15 16 17 16 16 16 18 18 17 15 13 13 16 21 27 29 29 26 18 11 5 4 5 4 1 -2 -2 2 8 15 13 7 -0 -5 -3 5 18 31 29 21 11 4 2 2 2 3 3 3 3 3 3 3 4 4 5 6 8 9 10 11 12 12 12 11 10 9 8
18 19 19 18 18 17 16 15 16 17 19 21 22 24 27 30 31 29 24 18 11 6 4 4 3 0 -2 -3 2 9 14 13 4 -2 -5 -3 5 17 27 31 22 13 6 2 2 2 3 3 3 3 3 3 3 4 4 5 6 8 9 10 11 12 12 11 11 10 9 7 7
Height
3071 3073 3075 3077 3079 3080 3082 3083 3084 3086 3087 3088 3089 3090 3091 3092 3093 3094 3095 3096 3097 3097 3098 3099 3099 3099 3099 3099 3099 3099 3099 3099 3100 3100 3100 3100 3100 3100 3100 3100 3100 3100 3101 3101 3101 3101 3101 3101 3101 3102 3102 3101 3101 3101 3101 3101 3101 3102 3102 3102 3102 3102 3102 3102 3102 3101 3101 3101 3101
3070 3072 3074 3076 3078 3079 3081 3082 3084 3085 3086 3087 3088 3089 3090 3091 3092 3093 3094 3095 3096 3097 3097 3098 3098 3098 3098 3098 3097 3098 3098 3098 3099 3099 3099 3099 3099 3099 3099 3099 3099 3099 3099 3100 3100 3100 3100 3100 3100 3101 3101 3100 3100 3100 3100 3100 3100 3100 3101 3101 3101 3100 3100 3100 3100 3100 3100 3100 3099
3070 3071 3073 3075 3076 3078 3079 3081 3082 3084 3085 3086 3087 3088 3089 3090 3091 3092 3093 3094 3095 3096 3096 3097 3097 3097 3097 3096 3096 3096 3096 3097 3097 3098 3098 3098 3098 3098 3097 3098 3098 3098 3098 3098 3099 3099 3099 3099 3099 3099 3099 3099 3099 3099 3099 3099 3099 3099 3099 3099 3099 3099 3099 3099 3099 3099 3099 3099 3099
3069 3070 3072 3074 3075 3077 3079 3080 3081 3083 3084 3085 3086 3087 3088 3089 3090 3091 3092 3093 3094 3095 3095 3096 3096 3096 3095 3095 3095 3094 3095 3095 3096 3096 3097 3097 3097 3096 3096 3096 3096 3097 3097 3097 3097 3097 3098 3098 3098 3098 3099 3098 3098 3098 3098 3098 3098 3098 3098 3098 3098 3098 3098 3098 3098 3098 3098 3098 3099
3068 3069 3071 3073 3074 3076 3078 3079 3080 3082 3083 3084 3085 3086 3087 3088 3089 3090 3091 3092 3093 3094 3094 3095 3095 3094 3094 3094 3093 3093 3093 3094 3094 3095 3095 3095 3095 3095 3095 3095 3095 3096 3096 3096 3096 3096 3096 3097 3097 3097 3097 3097 3097 3097 3097 3097 3097 3097 3097 3096 3097 3097 3097 3097 3097 3096 3097 3098 3098
3067 3068 3070 3072 3073 3075 3076 3078 3079 3080 3081 3083 3084 3084 3086 3087 3088 3089 3090 3091 3092 3093 3093 3094 3094 3093 3093 3092 3092 3092 3092 3092 3093 3093 3094 3094 3094 3094 3094 3094 3094 3094 3095 3095 3095 3095 3095 3095 3096 3096 3096 3096 3096 3095 3095 3095 3095 3095 3095 3095 3095 3095 3095 3095 3095 3096 3096 3096 3095
3065 3067 3069 3070 3072 3074 3075 3076 3078 3079 3080 3081 3082 3083 3084 3086 3087 3088 3089 3090 3091 3092 3092 3092 3092 3092 3091 3091 3091 3090 3091 3091 3091 3092 3092 3092 3093 3093 3093 3093 3093 3094 3094 3094 3094 3094 3094 3094 3094 3094 3094 3094 3094 3094 3094 3094 3094 3094 3094 3094 3094 3094 3094 3094 3094 3094 3094 3094 3093
3064 3066 3068 3069 3071 3072 3074 3075 3076 3078 3079 3080 3081 3082 3083 3084 3086 3087 3088 3089 3090 3090 3091 3091 3091 3090 3090 3089 3089 3089 3089 3090 3090 3090 3091 3091 3091 3091 3092 3092 3092 3092 3093 3093 3093 3093 3093 3093 3093 3093 3093 3093 3093 3093 3092 3092 3092 3093 3093 3093 3093 3093 3093 3093 3093 3093 3093 3093 3093
3063 3064 3066 3068 3069 3071 3072 3074 3075 3076 3077 3079 3079 3081 3082 3083 3084 3086 3087 3088 3089 3089 3090 3090 3089 3089 3089 3088 3088 3088 3088 3089 3089 3089 3089 3089 3090 3090 3090 3091 3091 3091 3091 3091 3091 3091 3091 3091 3091 3091 3091 3092 3092 3091 3091 3091 3091 3091 3092 3092 3092 3092 3092 3092 3092 3092 3092 3092 3092
3061 3063 3065 3066 3068 3069 3071 3072 3073 3074 3076 3077 3078 3079 3081 3082 3083 3084 3085 3086 3087 3088 3088 3088 3088 3087 3087 3086 3086 3086 3087 3087 3088 3088 3088 3088 3089 3089 3089 3089 3090 3090 3090 3090 3090 3090 3090 3090 3090 3090 3090 3090 3090 3090 3091 3091 3090 3090 3091 3091 3091 3091 3091 3091 3091 3091 3091 3091 3091
3060 3062 3063 3065 3066 3068 3069 3070 3072 3073 3074 3075 3077 3078 3079 3080 3082 3083 3084 3085 3086 3087 3087 3087 3086 3086 3085 3085 3085 3085 3085 3086 3086 3087 3087 3087 3087 3088 3088 3088 3089 3089 3089 3089 3089 3089 3089 3089 3089 3089 3089 3089 3089 3089 3090 3090 3089 3089 3089 3089 3089 3090 3090 3090 3090 3090 3090 3090 3089
3059 3060 3062 3063 3064 3066 3067 3069 3070 3071 3073 3074 3075 3076 3078 3079 3080 3082 3083 3084 3084 3085 3085 3085 3085 3084 3084 3084 3083 3084 3084 3084 3085 3085 3086 3086 3086 3087 3087 3087 3087 3087 3087 3088 3088 3088 3088 3088 3088 3088 3088 3088 3088 3088 3088 3088 3089 3089 3089 3089 3089 3089 3089 3089 3089 3089 3089 3088 3088
3057 3058 3060 3061 3063 3064 3065 3067 3068 3069 3071 3072 3074 3075 3076 3078 3079 3080 3081 3082 3083 3084 3084 3084 3083 3083 3082 3082 3082 3082 3083 3083 3084 3084 3084 3085 3085 3085 3086 3086 3086 3086 3086 3086 3086 3086 3086 3087 3087 3087 3087 3087 3087 3087 3087 3087 3088 3088 3088 3088 3088 3088 3088 3088 3088 3088 3088 3087 3087
3055 3056 3058 3059 3061 3062 3064 3065 3066 3068 3069 3070 3072 3073 3075 3076 3078 3079 3079 3080 3081 3082 3082 3082 3081 3081 3081 3080 3080 3081 3081 3082 3082 3083 3083 3084 3084 3084 3084 3084 3085 3085 3085 3085 3085 3085 3085 3085 3085 3085 3085 3086 3086 3086 3086 3087 3087 3087 3087 3087 3087 3087 3087 3087 3087 3087 3087 3086 3086
3053 3054 3056 3057 3059 3060 3062 3063 3065 3066 3068 3069 3070 3072 3073 3074 3076 3077 3078 3079 3079 3080 3080 3080 3079 3079 3079 3079 3079 3079 3080 3080 3081 3082 3082 3083 3083 3083 3083 3083 3084 3084 3084 3084 3084 3084 3084 3084 3084 3085 3085 3085 3085 3085 3085 3086 3086 3086 3085 3086 3086 3086 3086 3086 3086 3086 3085 3085 3085
3050 3052 3054 3055 3057 3058 3060 3062 3063 3064 3066 3067 3069 3070 3071 3073 3074 3075 3076 3077 3078 3079 3079 3078 3078 3078 3077 3077 3077 3078 3078 3079 3080 3080 3081 3081 3082 3082 3082 3082 3082 3082 3083 3083 3083 3083 3084 3084 3084 3084 3084 3084 3084 3084 3084 3084 3084 3084 3085 3085 3085 3085 3085 3085 3085 3084 3084 3084 3084
3048 3050 3051 3053 3055 3056 3058 3060 3061 3063 3064 3065 3067 3068 3069 3071 3072 3073 3074 3075 3076 3076 3076 3076 3076 3076 3076 3076 3076 3076 3077 3078 3079 3079 3080 3080 3080 3080 3081 3081 3081 3081 3081 3082 3082 3082 3082 3083 3083 3083 3083 3083 3083 3083 3083 3083 3084 3084 3084 3084 3084 3084 3084 3084 3084 3084 3084 3084 3083
3046 3048 3049 3051 3053 3055 3057 3058 3059 3061 3062 3064 3065 3066 3068 3069 3070 3071 3072 3073 3074 3074 3074 3074 3074 3074 3074 3074 3074 3075 3075 3076 3077 3078 3079 3079 3079 3079 3079 3080 3080 3080 3080 3081 3081 3081 3081 3082 3082 3082 3082 3082 3082 3082 3082 3082 3083 3083 3083 3084 3083 3083 3083 3083 3083 3083 3083 3083 3083
3044 3046 3048 3049 3051 3053 3055 3056 3058 3059 3060 3062 3063 3064 3065 3066 3068 3069 3070 3071 3072 3072 3072 3072 3072 3072 3072 3072 3073 3073 3074 3075 3076 3076 3077 3077 3078 3078 3078 3079 3079 3079 3079 3080 3080 3080 3081 3081 3081 3081 3081 3081 3081 3081 3081 3082 3082 3082 3082 3083 3082 3082 3082 3082 3082 3082 3082 3082 3082
3042 3044 3045 3048 3049 3051 3053 3054 3055 3057 3058 3059 3060 3061 3063 3064 3065 3066 3068 3069 3069 3070 3070 3070 3070 3070 3070 3070 3071 3072 3073 3074 3074 3075 3076 3076 3076 3077 3077 3077 3078 3078 3079 3079 3079 3079 3079 3079 3079 3079 3079 3080 3080 3080 3080 3081 3081 3081 3081 3081 3081 3081 3081 3081 3081 3081 3081 3081 3081
3039 3042 3044 3046 3048 3049 3050 3052 3053 3054 3055 3056 3058 3059 3060 3062 3063 3064 3065 3066 3067 3068 3068 3068 3068 3068 3068 3069 3069 3070 3071 3072 3073 3074 3074 3075 3075 3075 3076 3076 3077 3077 3077 3078 3078 3078 3078 3078 3078 3079 3079 3079 3079 3079 3079 3080 3080 3080 3080 3080 3080 3080 3080 3081 3081 3081 3081 3080 3080
3038 3040 3042 3043 3045 3046 3048 3049 3050 3051 3053 3054 3055 3056 3058 3059 3061 3062 3063 3064 3065 3065 3065 3066 3066 3066 3066 3067 3068 3069 3069 3071 3072 3072 3073 3074 3074 3074 3075 3075 3075 3076 3076 3076 3077 3077 3077 3077 3077 3077 3078 3078 3078 3079 3079 3079 3079 3079 3079 3079 3079 3080 3080 3080 3080 3080 3080 3079 3079
3036 3038 3039 3041 3042 3044 3045 3046 3047 3049 3050 3051 3052 3054 3055 3057 3059 3059 3061 3062 3062 3063 3063 3064 3064 3064 3064 3065 3066 3067 3068 3069 3070 3071 3072 3072 3073 3073 3074 3074 3074 3075 3075 3075 3076 3076 3076 3076 3076 3077 3077 3077 3077 3078 3078 3078 3078 3078 3079 3079 3079 3079 3079 3079 3079 3079 3079 3079 3078
3034 3035 3037 3038 3039 3041 3042 3044 3045 3046 3047 3049 3050 3052 3054 3055 3056 3057 3059 3059 3060 3061 3061 3061 3061 3062 3063 3064 3064 3065 3067 3068 3069 3070 3070 3071 3071 3072 3072 3073 3074 3074 3074 3074 3074 3075 3075 3075 3075 3076 3076 3076 3076 3077 3077 3078 3078 3078 3078 3078 3078 3078 3078 3078 3078 3078 3078 3077 3077
3031 3033 3034 3035 3037 3038 3040 3041 3042 3044 3045 3047 3048 3050 3051 3053 3054 3055 3056 3057 3058 3058 3059 3059 3059 3060 3061 3062 3063 3064 3065 3067 3068 3068 3069 3069 3070 3071 3071 3072 3072 3073 3073 3073 3074 3074 3074 3074 3075 3075 3075 3075 3075 3076 3076 3076 3077 3077 3077 3077 3077 3077 3077 3077 3077 3077 3077 3076 3076
3029 3030 3032 3033 3034 3036 3038 3039 3040 3042 3043 3045 3046 3048 3049 3051 3052 3053 3054 3055 3056 3056 3056 3057 3058 3059 3059 3060 3062 3063 3064 3065 3066 3067 3067 3068 3069 3069 3070 3070 3071 3071 3072 3072 3073 3073 3073 3074 3074 3074 3074 3074 3075 3075 3075 3075 3076 3076 3076 3076 3076 3076 3076 3076 3076 3076 3076 3075 3074
3027 3028 3029 3031 3032 3034 3035 3037 3039 3040 3041 3043 3044 3046 3048 3049 3050 3051 3052 3053 3054 3054 3054 3055 3056 3057 3058 3059 3060 3062 3063 3064 3065 3065 3066 3067 3068 3068 3069 3069 3070 3070 3071 3071 3072 3072 3073 3073 3073 3073 3073 3073 3074 3074 3074 3074 3075 3075 3075 3075 3075 3076 3076 3076 3075 3075 3074 3074 3073
3025 3026 3027 3029 3030 3032 3034 3035 3037 3038 3039 3041 3043 3044 3046 3047 3048 3049 3050 3051 3052 3052 3053 3054 3054 3055 3057 3058 3059 3060 3062 3063 3063 3064 3065 3066 3066 3067 3067 3068 3069 3069 3070 3071 3071 3071 3072 3072 3072 3072 3072 3073 3073 3073 3074 3074 3074 3074 3074 3075 3075 3075 3075 3075 3074 3074 3073 3073 3072
3023 3024 3026 3027 3029 3030 3032 3033 3035 3036 3038 3039 3041 3043 3044 3045 3046 3047 3048 3049 3050 3050 3051 3052 3053 3054 3055 3057 3058 3059 3060 3061 3062 3063 3064 3064 3065 3065 3066 3067 3068 3069 3069 3070 3070 3071 3071 3071 3071 3071 3072 3072 3072 3073 3073 3073 3074 3074 3074 3074 3074 3074 3074 3074 3073 3073 3072 3072 3071
3021 3023 3024 3026 3027 3029 3030 3032 3033 3035 3037 3038 3039 3041 3042 3044 3044 3045 3046 3047 3048 3049 3049 3050 3051 3053 3054 3055 3057 3058 3059 3060 3061 3062 3062 3063 3064 3064 3065 3066 3067 3068 3069 3069 3069 3070 3070 3070 3070 3071 3071 3071 3071 3072 3072 3073 3073 3073 3073 3073 3073 3073 3073 3073 3072 3072 3071 3070 3070
3020 3021 3023 3024 3026 3027 3029 3030 3032 3034 3035 3036 3038 3039 3041 3042 3043 3044 3045 3045 3046 3047 3048 3049 3050 3052 3053 3054 3056 3057 3058 3059 3059 3060 3061 3062 3062 3063 3064 3065 3066 3067 3068 3068 3069 3069 3069 3069 3069 3070 3070 3070 3071 3071 3072 3072 3072 3072 3072 3072 3072 3072 3072 3071 3071 3070 3070 3069 3069
3019 3020 3021 3023 3024 3026 3028 3029 3031 3032 3034 3035 3037 3038 3039 3040 3041 3042 3043 3044 3044 3045 3046 3048 3049 3051 3052 3053 3054 3055 3056 3058 3058 3059 3060 3060 3061 3062 3063 3064 3065 3066 3067 3067 3068 3068 3068 3069 3069 3069 3069 3069 3070 3071 3071 3071 3072 3072 3072 3072 3071 3071 3071 3070 3070 3069 3069 3068 3067
3017 3019 3020 3022 3023 3024 3026 3028 3029 3031 3032 3034 3035 3036 3037 3038 3039 3040 3041 3042 3043 3044 3045 3047 3048 3049 3051 3052 3053 3054 3055 3056 3057 3058 3059 3060 3060 3061 3062 3064 3065 3065 3065 3066 3067 3067 3067 3067 3068 3068 3068 3069 3070 3070 3070 3071 3071 3071 3071 3071 3070 3070 3070 3069 3069 3068 3068 3067 3066
3016 3018 3019 3020 3022 3023 3025 3026 3028 3029 3031 3032 3033 3034 3035 3036 3037 3039 3039 3040 3041 3043 3044 3046 3047 3049 3049 3051 3052 3053 3054 3055 3056 3057 3058 3059 3059 3060 3062 3063 3063 3064 3065 3066 3066 3066 3066 3066 3067 3067 3068 3069 3069 3069 3070 3070 3070 3070 3070 3070 3069 3069 3069 3068 3068 3067 3066 3066 3065
3014 3016 3018 3019 3020 3022 3023 3025 3026 3028 3029 3030 3031 3033 3034 3034 3036 3037 3038 3039 3040 3041 3043 3044 3046 3047 3048 3049 3051 3052 3053 3054 3055 3056 3057 3058 3059 3060 3061 3061 3062 3063 3064 3065 3065 3065 3065 3065 3066 3067 3067 3068 3069 3069 3069 3069 3069 3069 3069 3069 3069 3068 3068 3067 3067 3066 3065 3064 3064
3013 3014 3016 3018 3019 3021 3022 3023 3024 3026 3027 3029 3030 3031 3032 3033 3034 3035 3036 3037 3039 3040 3042 3044 3045 3046 3047 3048 3049 3050 3051 3053 3054 3054 3055 3057 3058 3059 3060 3060 3061 3062 3064 3064 3064 3064 3064 3064 3065 3066 3067 3067 3068 3068 3068 3068 3068 3068 3068 3068 3067 3067 3067 3066 3065 3065 3064 3063 3063
3011 3013 3015 3016 3018 3019 3020 3022 3023 3024 3026 3027 3029 3029 3030 3032 3033 3034 3035 3036 3038 3039 3041 3042 3044 3045 3046 3047 3048 3049 3050 3051 3052 3054 3055 3056 3057 3058 3059 3059 3060 3062 3063 3063 3063 3063 3063 3064 3065 3065 3066 3067 3067 3067 3067 3068 3067 3067 3067 3067 3066 3066 3065 3065 3064 3064 3063 3062 3061
3010 3011 3013 3015 3016 3018 3019 3020 3021 3023 3024 3026 3027 3028 3029 3030 3032 3033 3034 3035 3037 3038 3040 3041 3043 3044 3045 3046 3047 3048 3049 3050 3052 3053 3054 3055 3056 3057 3057 3058 3060 3061 3062 3062 3062 3062 3063 3063 3064 3065 3065 3066 3066 3066 3066 3066 3066 3066 3066 3065 3065 3065 3064 3064 3063 3063 3062 3061 3060
3008 3009 3011 3013 3014 3016 3017 3018 3019 3021 3023 3024 3025 3027 3028 3029 3030 3032 3033 3034 3036 3037 3039 3040 3042 3043 3044 3045 3046 3047 3048 3050 3052 3052 3053 3054 3055 3056 3057 3058 3059 3060 3060 3060 3061 3061 3062 3063 3064 3064 3064 3065 3065 3065 3065 3065 3065 3065 3064 3064 3064 3064 3063 3063 3062 3062 3061 3060 3059
3006 3007 3009 3011 3012 3014 3015 3016 3018 3019 3020 3022 3024 3025 3026 3028 3029 3030 3032 3034 3035 3037 3038 3039 3041 3042 3043 3044 3044 3046 3048 3049 3051 3052 3052 3053 3054 3055 3056 3057 3058 3059 3059 3059 3060 3061 3061 3062 3063 3063 3064 3064 3064 3064 3064 3064 3064 3064 3064 3063 3063 3063 3062 3062 3061 3061 3060 3059 3059
3003 3005 3006 3008 3010 3011 3013 3014 3016 3017 3019 3020 3022 3024 3025 3026 3028 3029 3031 3033 3034 3035 3037 3038 3039 3040 3041 3042 3044 3045 3047 3048 3049 3050 3051 3052 3053 3054 3055 3056 3057 3058 3058 3059 3059 3060 3061 3062 3062 3063 3063 3063 3063 3063 3063 3063 3063 3063 3062 3062 3062 3061 3061 3061 3060 3060 3059 3059 3058